COSMOS 2559 (707K)

Last updated on Tue Sep 16 2025 00:03:19 GMT+0000 (Coordinated Universal Time)

1 54031U 22130A 25258.41042932 -.00000060 00000+0 00000+0 0 9993 2 54031 64.4289 324.2507 0013164 187.7690 172.2733 2.13101534 22834
UTC large
Height (km)
Speed (km/s)
/
Latitude / Longitude
Inclination (degrees)
Orbital Period (minutes)
Azimuth
Elevation
Range (km)
Doppler Factor

Next 0 passes for location: London (51.5072 / 0.1276)

Sorry there are no passes over London.